South Lake Tahoe, CA

2:29 AM PDT on April 29, 2017 (GMT -0700)
Lake Tahoe

Weather History for KTVL - January, 2014

Change the Weather History Date:

Friday, January 10, 2014

  Actual Average Record
Temperature  
Mean Temperature 41 °F 30 °F  
Max Temperature 54 °F 43 °F 59 °F (1990)
Min Temperature 27 °F 16 °F 1 °F (1974)
Degree Days  
Heating Degree Days 24 35  
Month to date heating degree days 283 357  
Since 1 July heating degree days 3241 3540  
Cooling Degree Days 0 0  
Month to date cooling degree days 0 0  
Year to date cooling degree days 0 0  
Moisture  
Dew Point 24 °F    
Average Humidity 59    
Maximum Humidity 85    
Minimum Humidity 32    
Precipitation  
Precipitation 0.00 in - 2.08 in (1936)
Month to date precipitation 0.00  
Year to date precipitation 0.00  
Sea Level Pressure  
Sea Level Pressure 30.24 in    
Wind  
Wind Speed 3 mph (South)    
Max Wind Speed 12 mph    
Max Gust Speed 13 mph    
Visibility 10 miles    
Events      
T = Trace of Precipitation, MM = Missing Value Source: NWS Daily Summary

Daily Weather History Graph

Daily Weather History Graph

Search for Another Location

Airport or City:

Trip Planner

Search our weather history database for the weather conditions in past years. The results will help you decide how hot, cold, wet, or windy it might be!

Date:

Astronomy

Jan. 10, 2014 Rise Set
Actual Time 7:18 AM PST 4:57 PM PST
Civil Twilight 6:48 AM PST 5:26 PM PST
Nautical Twilight 6:15 AM PST 5:59 PM PST
Astronomical Twilight 5:43 AM PST 6:31 PM PST
Moon 1:03 PM PST (1/10) 2:31 AM PST (1/10)
Length of Visible Light 10h 37m
Length of Day
9h 38m
Waxing Gibbous, 76% of the Moon is Illuminated
Jan 10
Waxing Gibbous
Jan 15
Full
Jan 23
Last Quarter
Jan 30
New
Feb 6
First Quarter

Hourly Weather History & Observations

Time (PST) Temp. Windchill Dew Point Humidity Pressure Visibility Wind Dir Wind Speed Gust Speed Precip Events Conditions
12:53 AM 30.0 °F 25.2 °F 25.0 °F 82% 30.19 in 10.0 mi SSW 4.6 mph - N/A   Clear
1:53 AM 30.0 °F 26.5 °F 24.1 °F 79% 30.18 in 10.0 mi SSW 3.5 mph - N/A   Clear
2:53 AM 28.0 °F - 23.0 °F 81% 30.21 in 10.0 mi Calm Calm - N/A   Clear
3:53 AM 27.0 °F - 21.9 °F 81% 30.20 in 10.0 mi Calm Calm - N/A   Clear
4:53 AM 28.0 °F - 23.0 °F 81% 30.21 in 10.0 mi Calm Calm - N/A   Clear
5:53 AM 27.0 °F 20.5 °F 21.9 °F 81% 30.23 in 10.0 mi South 5.8 mph - N/A   Clear
6:53 AM 28.9 °F 23.9 °F 21.9 °F 75% 30.25 in 10.0 mi Variable 4.6 mph - N/A   Clear
7:53 AM 27.0 °F 23.0 °F 21.0 °F 78% 30.29 in 10.0 mi South 3.5 mph - N/A   Clear
8:53 AM 30.0 °F 25.2 °F 23.0 °F 75% 30.32 in 10.0 mi South 4.6 mph - N/A   Clear
9:53 AM 36.0 °F - 24.1 °F 62% 30.30 in 10.0 mi Calm Calm - N/A   Clear
10:53 AM 45.0 °F - 30.9 °F 58% 30.30 in 10.0 mi Calm Calm - N/A   Clear
11:53 AM 50.0 °F - 24.1 °F 36% 30.25 in 10.0 mi South 3.5 mph - N/A   Clear
12:53 PM 53.1 °F - 25.0 °F 34% 30.21 in 10.0 mi NNE 10.4 mph - N/A   Clear
1:53 PM 53.1 °F - 25.0 °F 34% 30.19 in 10.0 mi NE 6.9 mph - N/A   Clear
2:53 PM 54.0 °F - 24.1 °F 31% 30.19 in 10.0 mi Calm Calm - N/A   Clear
3:53 PM 48.9 °F - 26.1 °F 41% 30.21 in 10.0 mi North 3.5 mph - N/A   Clear
4:53 PM 42.1 °F - 27.0 °F 55% 30.24 in 10.0 mi Calm Calm - N/A   Clear
5:53 PM 37.9 °F - 26.1 °F 62% 30.26 in 10.0 mi Calm Calm - N/A   Clear
6:53 PM 34.0 °F - 25.0 °F 70% 30.27 in 10.0 mi Calm Calm - N/A   Clear
7:53 PM 32.0 °F 28.7 °F 24.1 °F 73% 30.30 in 10.0 mi South 3.5 mph - N/A   Clear
8:53 PM 30.9 °F 27.5 °F 24.1 °F 76% 30.31 in 10.0 mi South 3.5 mph - N/A   Clear
9:53 PM 30.0 °F - 24.1 °F 79% 30.29 in 10.0 mi Calm Calm - N/A   Clear
10:53 PM 28.9 °F - 24.1 °F 82% 30.25 in 10.0 mi Calm Calm - N/A   Clear
11:53 PM 28.9 °F 25.2 °F 23.0 °F 78% 30.22 in 10.0 mi SSW 3.5 mph - N/A   Clear